Location: Milton
(43.5183°N, 79.8775°W)
Time: 07:22:53
(UTC+00:00)

deb Agena D - Visible Passes

Search period start: 21 May 2024 00:00
Search period end: 31 May 2024 00:00
Orbit: 788 x 847 km, 99.5° (Epoch: 20 May)

Date Brightness Start Highest point End Pass type
(mag) Time Alt. Az. Time Alt. Az. Time Alt. Az.
23 May ? 09:11:32 10° NE 09:16:05 29° E 09:20:38 10° SSE visible
24 May ? 08:50:39 10° NE 08:54:19 19° E 08:57:58 10° SE visible
25 May ? 08:30:40 10° ENE 08:32:25 11° E 08:34:10 10° ESE visible
28 May ? 09:03:26 10° NE 09:07:40 24° E 09:11:54 10° SSE visible
29 May ? 08:42:38 10° NE 08:45:39 15° E 08:48:41 10° SE visible
